QPF
0.00 0.00 0.00 0.00 0.00 0.00 0.00 0.00 0.00 0.00 0.00 0.00 0.00 0.00 0.00 0.00 0.00 0.00 0.00 0.00 0.00 0.00 0.00 0.00 0.00 0.01 0.01 0.01 0.01 0.01 0.01 0.01 0.01 0.01 0.01 0.01 0.01 0.01 0.02 0.02 0.02 0.03 0.03
0.00 0.00 0.00 0.00 0.00 0.00 0.00 0.00 0.00 0.00 0.00 0.00 0.00 0.00 0.00 0.00 0.00 0.00 0.00 0.00 0.00 0.00 0.00 0.00 0.00 0.00 0.01 0.01 0.01 0.01 0.01 0.00 0.00 0.00 0.00 0.00 0.00 0.00 0.01 0.01 0.01 0.02 0.02
0.00 0.00 0.00 0.00 0.00 0.00 0.00 0.00 0.00 0.00 0.00 0.00 0.00 0.00 0.00 0.00 0.00 0.00 0.00 0.00 0.00 0.00 0.00 0.00 0.00 0.00 0.00 0.00 0.00 0.00 0.00 0.00 0.00 0.00 0.00 0.00 0.00 0.00 0.00 0.01 0.01 0.01 0.01
0.00 0.00 0.00 0.00 0.00 0.00 0.00 0.00 0.00 0.00 0.00 0.00 0.00 0.00 0.00 0.00 0.00 0.00 0.00 0.00 0.00 0.00 0.00 0.00 0.00 0.00 0.00 0.00 0.00 0.00 0.00 0.00 0.00 0.00 0.00 0.00 0.00 0.00 0.00 0.00 0.00 0.01 0.01
0.00 0.00 0.00 0.00 0.00 0.00 0.00 0.00 0.00 0.00 0.00 0.00 0.00 0.00 0.00 0.00 0.00 0.00 0.00 0.00 0.00 0.00 0.00 0.00 0.00 0.00 0.00 0.00 0.00 0.00 0.00 0.00 0.00 0.00 0.00 0.00 0.00 0.00 0.00 0.00 0.01 0.01 0.01
0.00 0.00 0.00 0.00 0.00 0.00 0.00 0.00 0.00 0.00 0.00 0.00 0.00 0.00 0.00 0.00 0.00 0.00 0.00 0.00 0.00 0.00 0.00 0.00 0.00 0.00 0.00 0.00 0.00 0.00 0.00 0.00 0.00 0.00 0.00 0.00 0.00 0.00 0.00 0.01 0.01 0.01 0.01
0.00 0.00 0.00 0.00 0.00 0.00 0.00 0.00 0.00 0.00 0.00 0.00 0.00 0.00 0.00 0.00 0.00 0.00 0.00 0.00 0.00 0.00 0.00 0.00 0.00 0.00 0.00 0.00 0.00 0.00 0.00 0.00 0.00 0.00 0.00 0.00 0.00 0.00 0.01 0.01 0.01 0.01 0.01
0.00 0.00 0.00 0.00 0.00 0.00 0.00 0.00 0.00 0.00 0.00 0.00 0.00 0.00 0.00 0.00 0.00 0.00 0.00 0.00 0.00 0.00 0.00 0.00 0.00 0.00 0.00 0.00 0.00 0.00 0.00 0.00 0.00 0.00 0.00 0.00 0.00 0.00 0.01 0.01 0.01 0.01 0.02
0.00 0.00 0.00 0.00 0.00 0.00 0.00 0.00 0.00 0.00 0.00 0.00 0.00 0.00 0.00 0.00 0.00 0.00 0.00 0.00 0.00 0.00 0.00 0.00 0.00 0.00 0.00 0.00 0.00 0.00 0.00 0.00 0.00 0.00 0.00 0.00 0.00 0.00 0.01 0.01 0.01 0.01 0.02
0.00 0.00 0.00 0.00 0.00 0.00 0.00 0.00 0.00 0.00 0.00 0.00 0.00 0.00 0.00 0.00 0.00 0.00 0.00 0.00 0.00 0.00 0.00 0.00 0.00 0.00 0.00 0.00 0.00 0.00 0.00 0.00 0.00 0.00 0.00 0.00 0.00 0.00 0.01 0.01 0.01 0.01 0.01
0.00 0.00 0.00 0.00 0.00 0.00 0.00 0.00 0.00 0.00 0.00 0.00 0.00 0.00 0.00 0.00 0.00 0.00 0.00 0.00 0.00 0.00 0.00 0.00 0.00 0.00 0.00 0.00 0.00 0.00 0.00 0.00 0.00 0.00 0.00 0.00 0.00 0.00 0.00 0.01 0.01 0.01 0.01
0.00 0.00 0.00 0.00 0.00 0.00 0.00 0.00 0.00 0.00 0.00 0.00 0.00 0.00 0.00 0.00 0.00 0.00 0.00 0.00 0.00 0.00 0.00 0.00 0.00 0.00 0.00 0.00 0.00 0.00 0.00 0.00 0.00 0.00 0.00 0.00 0.00 0.00 0.00 0.00 0.01 0.01 0.01
0.00 0.00 0.00 0.00 0.00 0.00 0.00 0.00 0.00 0.00 0.00 0.00 0.00 0.00 0.00 0.00 0.00 0.00 0.00 0.00 0.00 0.00 0.00 0.00 0.00 0.00 0.00 0.00 0.00 0.00 0.00 0.00 0.00 0.00 0.00 0.00 0.00 0.00 0.00 0.00 0.01 0.01 0.01
0.00 0.00 0.00 0.00 0.00 0.00 0.00 0.00 0.00 0.00 0.00 0.00 0.00 0.00 0.00 0.00 0.00 0.00 0.00 0.00 0.00 0.00 0.00 0.00 0.00 0.00 0.00 0.00 0.00 0.00 0.00 0.00 0.00 0.00 0.00 0.00 0.00 0.00 0.00 0.00 0.01 0.01 0.01
0.00 0.00 0.01 0.01 0.01 0.00 0.00 0.00 0.00 0.00 0.00 0.00 0.00 0.00 0.00 0.00 0.00 0.00 0.00 0.00 0.00 0.00 0.00 0.00 0.00 0.00 0.00 0.00 0.00 0.00 0.00 0.00 0.00 0.00 0.00 0.00 0.00 0.00 0.00 0.01 0.01 0.01 0.01
0.00 0.01 0.01 0.01 0.00 0.00 0.00 0.00 0.00 0.00 0.00 0.00 0.00 0.00 0.00 0.00 0.00 0.00 0.00 0.00 0.00 0.00 0.00 0.00 0.00 0.00 0.00 0.00 0.00 0.00 0.00 0.00 0.00 0.00 0.00 0.00 0.00 0.00 0.00 0.01 0.01 0.01 0.02
0.00 0.00 0.01 0.00 0.00 0.00 0.00 0.00 0.00 0.00 0.00 0.00 0.00 0.00 0.00 0.00 0.00 0.00 0.00 0.00 0.00 0.00 0.00 0.00 0.00 0.00 0.00 0.00 0.00 0.00 0.00 0.00 0.00 0.00 0.00 0.00 0.00 0.00 0.00 0.01 0.01 0.01 0.02
0.00 0.00 0.00 0.00 0.00 0.00 0.00 0.00 0.00 0.00 0.00 0.00 0.00 0.00 0.00 0.00 0.00 0.00 0.00 0.00 0.00 0.00 0.00 0.00 0.00 0.00 0.00 0.00 0.00 0.00 0.00 0.00 0.00 0.00 0.00 0.00 0.00 0.00 0.00 0.01 0.01 0.01 0.02
0.00 0.00 0.00 0.00 0.00 0.00 0.00 0.00 0.00 0.00 0.00 0.00 0.00 0.00 0.00 0.00 0.00 0.00 0.00 0.00 0.00 0.00 0.00 0.00 0.00 0.00 0.00 0.00 0.00 0.00 0.00 0.00 0.00 0.00 0.00 0.00 0.00 0.00 0.00 0.01 0.01 0.01 0.01
0.00 0.00 0.00 0.00 0.00 0.00 0.00 0.00 0.00 0.00 0.00 0.00 0.00 0.00 0.00 0.00 0.00 0.00 0.00 0.00 0.00 0.00 0.00 0.00 0.00 0.00 0.00 0.00 0.00 0.00 0.00 0.00 0.00 0.00 0.00 0.00 0.00 0.00 0.00 0.00 0.00 0.00 0.00
0.00 0.00 0.00 0.00 0.00 0.00 0.00 0.00 0.00 0.00 0.00 0.00 0.00 0.00 0.00 0.00 0.00 0.00 0.00 0.00 0.00 0.00 0.00 0.00 0.00 0.00 0.00 0.00 0.00 0.00 0.00 0.00 0.00 0.00 0.00 0.00 0.00 0.00 0.00 0.00 0.00 0.00 0.00
0.00 0.00 0.00 0.00 0.00 0.00 0.00 0.00 0.00 0.00 0.00 0.00 0.00 0.00 0.00 0.00 0.00 0.00 0.00 0.00 0.00 0.00 0.00 0.00 0.00 0.00 0.00 0.00 0.00 0.00 0.00 0.01 0.00 0.00 0.00 0.00 0.00 0.00 0.00 0.00 0.00 0.00 0.01
0.00 0.00 0.00 0.00 0.00 0.00 0.00 0.00 0.00 0.00 0.00 0.00 0.00 0.00 0.00 0.00 0.00 0.00 0.00 0.00 0.00 0.00 0.00 0.00 0.00 0.00 0.00 0.00 0.00 0.01 0.01 0.01 0.02 0.01 0.01 0.01 0.01 0.00 0.00 0.00 0.00 0.01 0.01
0.00 0.00 0.00 0.00 0.00 0.00 0.00 0.00 0.00 0.00 0.00 0.00 0.00 0.00 0.00 0.00 0.00 0.00 0.00 0.00 0.00 0.00 0.00 0.00 0.00 0.00 0.00 0.01 0.01 0.02 0.02 0.02 0.02 0.01 0.01 0.02 0.00 0.00 0.00 0.00 0.00 0.00 0.01
0.00 0.00 0.00 0.00 0.00 0.00 0.00 0.00 0.00 0.00 0.00 0.00 0.00 0.00 0.00 0.00 0.00 0.00 0.00 0.00 0.00 0.00 0.00 0.00 0.01 0.01 0.01 0.01 0.02 0.02 0.02 0.03 0.02 0.01 0.00 0.01 0.00 0.00 0.00 0.00 0.00 0.00 0.00
0.00 0.00 0.00 0.00 0.00 0.00 0.00 0.00 0.00 0.00 0.00 0.00 0.00 0.00 0.00 0.00 0.00 0.00 0.00 0.00 0.00 0.00 0.00 0.00 0.00 0.00 0.00 0.00 0.01 0.01 0.02 0.03 0.02 0.01 0.00 0.01 0.01 0.01 0.01 0.00 0.00 0.00 0.00
MSLP
1020.38 1020.61 1020.75 1020.83 1020.88 1020.94 1021.02 1021.13 1021.25 1021.36 1021.44 1021.48 1021.49 1021.48 1021.45 1021.45 1021.47 1021.52 1021.60 1021.68 1021.75 1021.77 1021.76 1021.70 1021.60 1021.48 1021.36 1021.26 1021.17 1021.09 1021.02 1020.94 1020.85 1020.73 1020.59 1020.43 1020.25 1020.07 1019.89 1019.70 1019.50 1019.29 1019.08
1020.07 1020.31 1020.46 1020.56 1020.65 1020.74 1020.86 1021.00 1021.14 1021.28 1021.39 1021.46 1021.48 1021.48 1021.47 1021.47 1021.49 1021.55 1021.63 1021.72 1021.81 1021.87 1021.89 1021.88 1021.82 1021.75 1021.66 1021.57 1021.49 1021.41 1021.33 1021.24 1021.14 1021.02 1020.87 1020.71 1020.54 1020.35 1020.15 1019.94 1019.72 1019.48 1019.23
1019.64 1019.90 1020.09 1020.24 1020.38 1020.52 1020.69 1020.88 1021.08 1021.26 1021.40 1021.50 1021.56 1021.58 1021.59 1021.60 1021.63 1021.68 1021.76 1021.84 1021.93 1022.01 1022.06 1022.07 1022.06 1022.02 1021.97 1021.90 1021.83 1021.75 1021.66 1021.56 1021.44 1021.30 1021.15 1020.98 1020.80 1020.60 1020.39 1020.17 1019.92 1019.66 1019.38
1019.14 1019.43 1019.67 1019.89 1020.10 1020.32 1020.56 1020.81 1021.06 1021.29 1021.48 1021.62 1021.72 1021.78 1021.81 1021.84 1021.87 1021.92 1021.99 1022.07 1022.15 1022.22 1022.27 1022.31 1022.32 1022.31 1022.28 1022.24 1022.17 1022.09 1021.99 1021.87 1021.73 1021.57 1021.39 1021.20 1021.00 1020.79 1020.56 1020.32 1020.06 1019.77 1019.47
1018.59 1018.94 1019.25 1019.54 1019.84 1020.15 1020.46 1020.78 1021.08 1021.36 1021.59 1021.78 1021.93 1022.04 1022.11 1022.17 1022.22 1022.27 1022.32 1022.39 1022.45 1022.51 1022.56 1022.59 1022.61 1022.62 1022.61 1022.57 1022.52 1022.43 1022.31 1022.16 1021.99 1021.80 1021.59 1021.36 1021.13 1020.89 1020.64 1020.38 1020.10 1019.80 1019.48
1018.04 1018.44 1018.82 1019.20 1019.59 1019.98 1020.36 1020.74 1021.10 1021.42 1021.71 1021.95 1022.15 1022.31 1022.44 1022.54 1022.62 1022.68 1022.74 1022.79 1022.83 1022.87 1022.90 1022.93 1022.95 1022.96 1022.95 1022.91 1022.85 1022.75 1022.61 1022.43 1022.22 1021.99 1021.73 1021.47 1021.20 1020.93 1020.65 1020.36 1020.06 1019.74 1019.41
1017.50 1017.94 1018.39 1018.85 1019.32 1019.78 1020.24 1020.67 1021.08 1021.45 1021.78 1022.08 1022.34 1022.56 1022.75 1022.90 1023.03 1023.12 1023.19 1023.23 1023.26 1023.27 1023.28 1023.29 1023.30 1023.30 1023.28 1023.24 1023.16 1023.04 1022.88 1022.67 1022.42 1022.14 1021.84 1021.53 1021.22 1020.91 1020.61 1020.29 1019.97 1019.64 1019.29
1016.96 1017.44 1017.95 1018.48 1019.02 1019.55 1020.06 1020.54 1020.99 1021.40 1021.78 1022.13 1022.45 1022.74 1023.00 1023.22 1023.40 1023.53 1023.62 1023.67 1023.68 1023.68 1023.67 1023.66 1023.64 1023.62 1023.59 1023.53 1023.44 1023.30 1023.11 1022.87 1022.58 1022.26 1021.92 1021.58 1021.23 1020.89 1020.55 1020.22 1019.88 1019.52 1019.16
1016.43 1016.95 1017.51 1018.10 1018.68 1019.26 1019.81 1020.33 1020.81 1021.26 1021.68 1022.09 1022.47 1022.83 1023.16 1023.45 1023.69 1023.87 1023.98 1024.05 1024.06 1024.05 1024.02 1023.98 1023.94 1023.90 1023.85 1023.77 1023.66 1023.50 1023.29 1023.02 1022.71 1022.37 1022.00 1021.62 1021.25 1020.88 1020.52 1020.16 1019.80 1019.43 1019.05
1015.91 1016.47 1017.07 1017.70 1018.33 1018.94 1019.52 1020.07 1020.57 1021.05 1021.52 1021.97 1022.41 1022.83 1023.23 1023.59 1023.88 1024.11 1024.26 1024.34 1024.36 1024.34 1024.30 1024.24 1024.18 1024.12 1024.04 1023.95 1023.81 1023.64 1023.41 1023.13 1022.81 1022.45 1022.06 1021.67 1021.28 1020.89 1020.51 1020.13 1019.75 1019.37 1018.97
1015.42 1016.02 1016.65 1017.32 1017.97 1018.61 1019.21 1019.78 1020.31 1020.81 1021.31 1021.80 1022.29 1022.76 1023.22 1023.63 1023.97 1024.24 1024.42 1024.52 1024.56 1024.54 1024.49 1024.42 1024.34 1024.26 1024.17 1024.05 1023.91 1023.72 1023.48 1023.19 1022.86 1022.49 1022.11 1021.71 1021.31 1020.91 1020.51 1020.12 1019.72 1019.32 1018.92
1014.97 1015.61 1016.28 1016.97 1017.65 1018.31 1018.93 1019.51 1020.05 1020.58 1021.10 1021.62 1022.14 1022.65 1023.14 1023.59 1023.97 1024.27 1024.48 1024.60 1024.65 1024.64 1024.60 1024.53 1024.44 1024.35 1024.24 1024.11 1023.94 1023.74 1023.49 1023.20 1022.86 1022.50 1022.12 1021.72 1021.32 1020.92 1020.51 1020.10 1019.69 1019.27 1018.84
1014.58 1015.26 1015.97 1016.68 1017.38 1018.05 1018.68 1019.28 1019.84 1020.38 1020.91 1021.45 1021.98 1022.52 1023.02 1023.49 1023.89 1024.20 1024.44 1024.58 1024.65 1024.66 1024.63 1024.57 1024.49 1024.39 1024.27 1024.12 1023.94 1023.72 1023.46 1023.15 1022.82 1022.46 1022.08 1021.69 1021.29 1020.89 1020.48 1020.05 1019.62 1019.18 1018.73
1014.24 1014.97 1015.71 1016.45 1017.16 1017.84 1018.48 1019.08 1019.65 1020.20 1020.74 1021.28 1021.83 1022.36 1022.87 1023.33 1023.74 1024.07 1024.31 1024.48 1024.58 1024.61 1024.60 1024.56 1024.49 1024.39 1024.27 1024.11 1023.91 1023.67 1023.39 1023.07 1022.73 1022.36 1021.99 1021.60 1021.21 1020.80 1020.38 1019.95 1019.50 1019.03 1018.55
1013.96 1014.72 1015.49 1016.24 1016.97 1017.66 1018.31 1018.91 1019.49 1020.04 1020.58 1021.12 1021.65 1022.17 1022.67 1023.12 1023.52 1023.86 1024.12 1024.31 1024.43 1024.50 1024.53 1024.52 1024.46 1024.37 1024.24 1024.07 1023.85 1023.58 1023.28 1022.95 1022.59 1022.22 1021.84 1021.46 1021.06 1020.65 1020.23 1019.78 1019.30 1018.81 1018.30
1013.69 1014.48 1015.26 1016.03 1016.76 1017.45 1018.11 1018.72 1019.30 1019.85 1020.39 1020.92 1021.43 1021.94 1022.41 1022.85 1023.24 1023.58 1023.85 1024.06 1024.22 1024.33 1024.39 1024.41 1024.38 1024.31 1024.18 1023.99 1023.76 1023.47 1023.15 1022.79 1022.42 1022.04 1021.65 1021.26 1020.86 1020.45 1020.01 1019.55 1019.05 1018.53 1017.99
1013.41 1014.21 1015.00 1015.76 1016.50 1017.20 1017.85 1018.47 1019.05 1019.60 1020.13 1020.65 1021.15 1021.63 1022.08 1022.50 1022.88 1023.22 1023.50 1023.74 1023.93 1024.08 1024.18 1024.23 1024.22 1024.16 1024.04 1023.85 1023.60 1023.30 1022.96 1022.59 1022.21 1021.82 1021.43 1021.03 1020.63 1020.20 1019.76 1019.28 1018.76 1018.21 1017.63
1013.10 1013.90 1014.68 1015.43 1016.16 1016.86 1017.52 1018.13 1018.72 1019.27 1019.80 1020.30 1020.78 1021.24 1021.67 1022.08 1022.44 1022.78 1023.07 1023.33 1023.55 1023.72 1023.85 1023.93 1023.95 1023.91 1023.79 1023.61 1023.36 1023.06 1022.71 1022.34 1021.96 1021.56 1021.17 1020.78 1020.37 1019.94 1019.48 1018.98 1018.44 1017.86 1017.25
1012.76 1013.53 1014.29 1015.04 1015.76 1016.45 1017.11 1017.73 1018.31 1018.86 1019.38 1019.87 1020.34 1020.78 1021.19 1021.58 1021.94 1022.26 1022.56 1022.82 1023.06 1023.25 1023.40 1023.50 1023.53 1023.50 1023.40 1023.24 1023.00 1022.72 1022.39 1022.04 1021.66 1021.29 1020.90 1020.51 1020.10 1019.66 1019.18 1018.66 1018.10 1017.49 1016.85
1012.41 1013.15 1013.88 1014.61 1015.32 1016.00 1016.65 1017.27 1017.86 1018.40 1018.92 1019.40 1019.85 1020.27 1020.66 1021.03 1021.37 1021.69 1021.98 1022.24 1022.47 1022.66 1022.81 1022.91 1022.96 1022.94 1022.86 1022.72 1022.52 1022.27 1021.98 1021.66 1021.33 1020.98 1020.61 1020.23 1019.82 1019.36 1018.87 1018.32 1017.73 1017.09 1016.42
1012.08 1012.79 1013.49 1014.19 1014.89 1015.56 1016.20 1016.82 1017.40 1017.93 1018.43 1018.90 1019.33 1019.74 1020.11 1020.46 1020.78 1021.08 1021.34 1021.58 1021.79 1021.97 1022.11 1022.20 1022.24 1022.24 1022.18 1022.07 1021.92 1021.72 1021.49 1021.24 1020.96 1020.65 1020.31 1019.94 1019.52 1019.06 1018.54 1017.96 1017.33 1016.66 1015.97
1011.81 1012.48 1013.16 1013.84 1014.51 1015.17 1015.80 1016.40 1016.96 1017.48 1017.97 1018.41 1018.83 1019.21 1019.56 1019.89 1020.18 1020.45 1020.69 1020.90 1021.07 1021.21 1021.32 1021.39 1021.43 1021.43 1021.39 1021.32 1021.23 1021.10 1020.95 1020.77 1020.55 1020.29 1019.99 1019.63 1019.21 1018.73 1018.18 1017.56 1016.90 1016.20 1015.49
1011.62 1012.26 1012.91 1013.57 1014.22 1014.86 1015.47 1016.04 1016.58 1017.08 1017.54 1017.96 1018.35 1018.71 1019.04 1019.34 1019.61 1019.84 1020.04 1020.21 1020.34 1020.44 1020.51 1020.55 1020.57 1020.57 1020.56 1020.54 1020.51 1020.46 1020.38 1020.28 1020.13 1019.93 1019.66 1019.32 1018.89 1018.38 1017.80 1017.15 1016.45 1015.73 1015.00
1011.52 1012.14 1012.77 1013.40 1014.02 1014.63 1015.20 1015.74 1016.24 1016.71 1017.13 1017.52 1017.89 1018.22 1018.53 1018.81 1019.05 1019.26 1019.43 1019.55 1019.64 1019.69 1019.72 1019.73 1019.73 1019.74 1019.75 1019.78 1019.80 1019.83 1019.83 1019.81 1019.73 1019.57 1019.33 1019.00 1018.56 1018.03 1017.42 1016.73 1016.01 1015.27 1014.53
1011.49 1012.09 1012.69 1013.29 1013.88 1014.44 1014.97 1015.47 1015.92 1016.34 1016.73 1017.09 1017.43 1017.74 1018.04 1018.30 1018.52 1018.71 1018.85 1018.94 1018.99 1019.01 1019.00 1018.99 1018.98 1018.99 1019.02 1019.09 1019.17 1019.26 1019.33 1019.37 1019.34 1019.23 1019.02 1018.69 1018.24 1017.69 1017.05 1016.35 1015.61 1014.86 1014.14
1011.50 1012.08 1012.65 1013.21 1013.75 1014.26 1014.73 1015.17 1015.58 1015.95 1016.30 1016.63 1016.95 1017.25 1017.53 1017.78 1018.00 1018.17 1018.30 1018.37 1018.40 1018.39 1018.37 1018.34 1018.33 1018.35 1018.40 1018.50 1018.63 1018.76 1018.89 1018.98 1018.99 1018.91 1018.71 1018.39 1017.94 1017.38 1016.73 1016.02 1015.29 1014.56 1013.85
Thickness
5669 5666 5662 5659 5656 5653 5650 5647 5644 5641 5639 5637 5634 5632 5629 5627 5625 5623 5621 5618 5615 5613 5611 5610 5609 5607 5606 5605 5604 5602 5601 5600 5599 5598 5598 5597 5597 5597 5598 5598 5599 5599 5600
5666 5662 5658 5654 5651 5648 5645 5642 5639 5635 5632 5630 5627 5625 5623 5620 5618 5616 5614 5611 5608 5605 5603 5601 5600 5598 5597 5595 5594 5593 5591 5590 5589 5588 5588 5587 5587 5587 5587 5588 5589 5590 5590
5663 5658 5654 5650 5647 5644 5640 5636 5632 5629 5625 5623 5620 5617 5615 5613 5611 5608 5606 5603 5600 5597 5595 5592 5590 5588 5587 5585 5584 5582 5581 5580 5579 5578 5578 5577 5577 5577 5577 5578 5579 5580 5581
5659 5654 5649 5645 5642 5638 5634 5629 5625 5621 5618 5614 5612 5609 5607 5605 5603 5600 5598 5595 5592 5589 5586 5583 5580 5578 5576 5575 5574 5572 5571 5569 5568 5568 5567 5567 5567 5567 5567 5568 5569 5570 5571
5655 5650 5645 5641 5636 5632 5628 5624 5619 5614 5610 5607 5604 5601 5599 5597 5594 5592 5589 5586 5583 5580 5576 5573 5570 5567 5565 5564 5562 5561 5560 5559 5558 5557 5557 5556 5556 5556 5557 5557 5558 5559 5561
5650 5646 5640 5636 5631 5625 5620 5616 5612 5607 5602 5599 5596 5593 5589 5587 5585 5582 5579 5576 5573 5570 5566 5563 5560 5557 5555 5553 5551 5550 5549 5548 5547 5546 5546 5545 5545 5545 5546 5547 5547 5548 5550
5645 5640 5635 5629 5624 5619 5614 5610 5604 5599 5594 5590 5586 5582 5579 5577 5575 5572 5569 5566 5563 5560 5556 5553 5550 5547 5544 5542 5540 5539 5537 5536 5536 5535 5534 5534 5534 5534 5535 5535 5536 5537 5538
5640 5635 5629 5624 5618 5613 5607 5602 5598 5591 5586 5582 5577 5571 5566 5565 5563 5561 5558 5555 5552 5549 5546 5543 5539 5536 5534 5531 5529 5527 5526 5525 5524 5524 5523 5523 5523 5523 5523 5524 5525 5526 5527
5635 5630 5624 5618 5612 5607 5601 5596 5591 5585 5578 5573 5569 5564 5557 5555 5550 5549 5547 5544 5541 5538 5535 5532 5529 5527 5524 5521 5519 5516 5515 5513 5513 5512 5512 5512 5512 5512 5512 5513 5513 5514 5515
5629 5624 5618 5612 5606 5601 5595 5590 5585 5579 5573 5566 5560 5557 5552 5547 5541 5538 5535 5533 5531 5528 5525 5522 5519 5516 5513 5511 5509 5506 5504 5503 5501 5501 5500 5500 5500 5500 5501 5501 5502 5502 5503
5623 5618 5612 5606 5600 5595 5589 5584 5578 5573 5567 5561 5554 5549 5543 5537 5533 5527 5524 5521 5519 5517 5515 5512 5509 5506 5503 5501 5498 5496 5494 5492 5490 5489 5489 5488 5488 5488 5489 5489 5489 5490 5491
5615 5611 5606 5600 5595 5589 5583 5577 5572 5566 5561 5555 5549 5543 5537 5531 5524 5519 5514 5510 5506 5506 5505 5502 5499 5497 5494 5491 5488 5485 5483 5481 5479 5478 5477 5477 5476 5476 5476 5477 5477 5478 5479
5608 5604 5599 5593 5588 5583 5577 5571 5565 5559 5554 5548 5542 5536 5531 5526 5520 5513 5507 5501 5497 5495 5494 5492 5490 5487 5484 5481 5478 5475 5472 5470 5469 5468 5466 5465 5465 5464 5464 5464 5464 5465 5465
5605 5599 5593 5587 5582 5576 5570 5564 5558 5552 5546 5541 5535 5529 5523 5518 5513 5507 5500 5492 5486 5483 5481 5482 5481 5478 5475 5471 5468 5465 5462 5460 5458 5457 5455 5454 5453 5452 5452 5451 5451 5451 5451
5599 5593 5587 5581 5575 5569 5563 5557 5551 5545 5539 5533 5527 5522 5516 5511 5505 5500 5494 5487 5479 5474 5473 5472 5470 5469 5465 5462 5458 5455 5452 5449 5447 5445 5444 5442 5441 5439 5438 5437 5436 5436 5436
5594 5586 5580 5574 5568 5562 5556 5550 5544 5538 5532 5526 5520 5514 5508 5503 5497 5492 5486 5479 5473 5467 5463 5464 5461 5459 5456 5452 5448 5445 5442 5438 5435 5433 5431 5429 5427 5425 5423 5422 5421 5420 5419
5588 5581 5575 5569 5562 5555 5549 5543 5537 5531 5525 5519 5513 5507 5501 5496 5489 5484 5478 5472 5465 5459 5456 5457 5453 5450 5446 5442 5438 5434 5431 5427 5423 5420 5417 5415 5412 5410 5407 5405 5403 5401 5400
5582 5576 5569 5562 5556 5549 5543 5537 5530 5524 5518 5512 5506 5499 5494 5488 5481 5476 5470 5464 5458 5453 5447 5447 5445 5439 5435 5431 5427 5423 5419 5415 5411 5407 5403 5400 5397 5393 5390 5387 5384 5381 5379
5575 5569 5563 5556 5550 5543 5537 5531 5524 5518 5511 5505 5499 5493 5487 5480 5473 5467 5462 5456 5451 5446 5440 5435 5434 5429 5424 5420 5416 5412 5407 5402 5397 5392 5388 5384 5380 5376 5372 5368 5364 5361 5358
5569 5562 5556 5549 5543 5536 5530 5523 5517 5510 5504 5497 5491 5485 5479 5472 5466 5460 5454 5448 5442 5436 5430 5425 5423 5418 5413 5408 5401 5397 5395 5389 5384 5378 5373 5368 5363 5358 5352 5348 5345 5342 5339
5562 5555 5548 5541 5535 5528 5522 5515 5508 5502 5495 5488 5482 5477 5471 5465 5459 5453 5447 5440 5434 5427 5420 5415 5411 5407 5401 5393 5387 5383 5379 5376 5371 5363 5358 5352 5344 5340 5334 5329 5325 5322 5321
5553 5546 5540 5533 5527 5521 5516 5509 5502 5494 5487 5480 5474 5468 5462 5457 5451 5446 5440 5435 5427 5418 5410 5404 5400 5393 5389 5381 5375 5368 5362 5358 5355 5350 5340 5337 5328 5323 5318 5313 5309 5308 5306
5544 5537 5531 5525 5518 5513 5507 5501 5494 5486 5479 5472 5466 5459 5454 5448 5442 5435 5430 5425 5417 5410 5403 5395 5388 5381 5374 5368 5361 5355 5347 5340 5337 5330 5322 5322 5314 5309 5304 5299 5295 5294 5292
5535 5528 5522 5516 5509 5503 5498 5492 5485 5477 5470 5464 5457 5451 5444 5438 5431 5425 5419 5413 5405 5397 5390 5383 5376 5369 5361 5354 5345 5339 5333 5328 5323 5314 5304 5302 5301 5296 5293 5287 5283 5281 5280
5525 5519 5513 5506 5499 5493 5488 5482 5476 5467 5460 5454 5448 5441 5434 5427 5422 5416 5409 5401 5394 5386 5378 5371 5364 5356 5348 5340 5331 5324 5316 5309 5307 5301 5291 5286 5286 5284 5283 5278 5274 5270 5270
5517 5510 5503 5496 5490 5484 5478 5472 5466 5458 5450 5444 5437 5431 5424 5418 5411 5404 5396 5387 5380 5374 5366 5359 5350 5341 5332 5324 5316 5307 5299 5293 5289 5285 5280 5273 5272 5268 5271 5271 5265 5262 5261